Torna al catalogo

FENGYUN 1C DEB

LostPO
NORAD 38826·DEBRIS·🇨🇳 China

Lanciato May 10, 1999 da Taiyuan Satellite Launch Center

Loading…

Prossimi Passaggi (prossime 24 ore)

TLE

ObsoletoSource: Space-Track

Epoca: Dec 13, 2021, 02:18 UTC

1 38826U 99025EVS 21347.09638902  .00000747  00000-0  33755-3 0  9990
2 38826  99.8843 304.2173 0055028 295.6066  63.9429 14.24985456559239

Traccia FENGYUN 1C DEB in tempo reale con AllMySat

Download on the App Store